Location: Oberkirch
(48.5323°N, 8.0787°E)
Time: 16:42:42
(UTC+00:00)

SL-24 R/B - RUBIN 2 - Pass Details

Date: 12 February 2026
Orbit: 603 x 984 km, 64.6° (Epoch: 8 March)

Event Time Altitude Azimuth Distance (km) Brightness Sun altitude
Exits shadow 04:19:00 29° 347° (NNW) 1,186 4.9 -23.9°
Drops below altitude 10° 04:22:05 10° 26° (NNE) 2,013 6.5 -23.4°
Sets 04:24:29 0° 36° (NE) 2,893 7.6 -23.0°
